This is the latest recevied weather packets stored in our database for station/object KC0UFP. If no packets are shown the sender has not sent any weather packets the latest 10 day(s).
| Time | Temp. | Humidity | Pressure | Rain* | Wind** | Luminosity | Snow |
|---|---|---|---|---|---|---|---|
| 1777898810 | 16.67° C | 76% | 1011.9 hPa | 0 mm | - | 147 W/m² | - |
| 1777898508 | 16.67° C | 76% | 1012.2 hPa | 0 mm | - | 161 W/m² | - |
| 1777898205 | 16.67° C | 76% | 1012.1 hPa | 0 mm | - | 175 W/m² | - |
| 1777897902 | 16.11° C | 77% | 1012.2 hPa | 0 mm | - | 173 W/m² | - |
| 1777897598 | 16.11° C | 77% | 1012.1 hPa | 0 mm | - | 146 W/m² | - |
| 1777897293 | 15.56° C | 78% | 1012.1 hPa | 0 mm | - | 120 W/m² | - |
| 1777896990 | 15.56° C | 79% | 1012.1 hPa | 0 mm | - | 98 W/m² | - |
| 1777896687 | 15° C | 79% | 1012.1 hPa | 0 mm | - | 67 W/m² | - |
| 1777896384 | 15° C | 79% | 1012.1 hPa | 0 mm | - | 52 W/m² | - |
| 1777896082 | 15° C | 79% | 1012.1 hPa | 0 mm | - | 44 W/m² | - |
| 1777895780 | 15° C | 79% | 1012.2 hPa | 0 mm | - | 40 W/m² | - |
| 1777895477 | 15° C | 79% | 1011.9 hPa | 0 mm | - | 35 W/m² | - |
| 1777895174 | 15° C | 79% | 1011.9 hPa | 0 mm | - | 32 W/m² | - |
| 1777894871 | 15° C | 79% | 1011.9 hPa | 0 mm | - | 28 W/m² | - |
| 1777894569 | 15° C | 79% | 1011.6 hPa | 0 mm | - | 23 W/m² | - |
| 1777894266 | 15° C | 78% | 1011.6 hPa | 0 mm | - | 19 W/m² | - |
| 1777893963 | 15° C | 78% | 1011.4 hPa | 0 mm | - | 15 W/m² | - |
| 1777893659 | 15° C | 78% | 1011.5 hPa | 0 mm | - | 11 W/m² | - |
| 1777893355 | 15.56° C | 77% | 1011.3 hPa | 0 mm | - | 8 W/m² | - |
| 1777893051 | 15.56° C | 77% | 1011.3 hPa | 0 mm | - | 5 W/m² | - |
| 1777892749 | 15.56° C | 76% | 1011.5 hPa | 0 mm | - | 3 W/m² | - |
| 1777892444 | 15.56° C | 76% | 1011.5 hPa | 0 mm | - | 2 W/m² | - |
| 1777892140 | 15.56° C | 76% | 1011.1 hPa | 0 mm | - | 1 W/m² | - |
| 1777891838 | 15.56° C | 75% | 1011.2 hPa | 0 mm | - | 0 W/m² | - |
| 1777891535 | 15.56° C | 75% | 1011.4 hPa | 0 mm | - | 0 W/m² | - |
* Rain latest hour (hover to see other rain measurements)
** Current wind speed in m/s (hover to see current wind gust speed)